Location: ???????
(55.9142°N, 37.8256°E)
Time: 18:46:29
(UTC+00:00)

DMSP B5D2-2 - Pass Details

Date: 14 April 2024
Orbit: 788 x 802 km, 98.3° (Epoch: 27 May)

Event Time Altitude Azimuth Distance (km) Brightness Sun altitude
Rises 01:43:01 0° 181° (S) 3,275 7.0 -6.3°
Reaches altitude 10° 01:45:25 10° 187° (S) 2,350 6.2 -6.0°
Maximum altitude 01:50:24 47° 261° (W) 1,039 4.3 -5.3°
Drops below altitude 10° 01:55:27 10° 336° (NNW) 2,366 6.6 -4.7°
Sets 01:57:53 0° 342° (NNW) 3,300 7.4 -4.4°
